CW3642 Weather Reports


Display with metric or nautical units.
time (UTC)temp
F
wind
direction
speed
MPH
gust
MPH
rain 1hr
in
rain 24hr
in
rain mn
in
humidity
%
barometer
mb
20260502233322 47 360 2.0 5.0 0.00 0.00 0.00 35 1013.8
20260502232822 47 360 3.0 5.0 0.00 0.00 0.00 35 1013.8
20260502232322 48 360 2.0 5.0 0.00 0.00 0.00 36 1013.9
20260502231822 48 360 3.0 5.0 0.00 0.00 0.00 34 1013.9
20260502230823 47 360 2.0 5.0 0.00 0.00 0.00 37 1013.9
20260502230322 47 360 3.0 5.0 0.00 0.00 0.00 36 1013.9
20260502225822 47 360 0.0 5.0 0.00 0.00 0.00 35 1014.0
20260502225322 47 360 0.0 5.0 0.00 0.00 0.00 38 1013.9
20260502224822 48 360 0.0 5.0 0.00 0.00 0.00 36 1013.8
20260502223822 48 360 0.0 5.0 0.00 0.00 0.00 36 1013.9
20260502223322 48 360 0.0 5.0 0.00 0.00 0.00 37 1013.9
20260502222822 48 360 0.0 5.0 0.00 0.00 0.00 34 1014.0
20260502221322 48 360 0.0 5.0 0.00 0.00 0.00 33 1014.0
20260502220822 49 360 0.0 8.0 0.00 0.00 0.00 34 1014.1
20260502215834 50 360 1.0 8.0 0.00 0.00 0.00 33 1014.4
20260502214834 51 360 0.0 8.0 0.00 0.00 0.00 31 1014.5
20260502214334 51 360 3.0 8.0 0.00 0.00 0.00 32 1014.6
20260502213334 50 360 5.0 8.0 0.00 0.00 0.00 33 1014.8
20260502212834 50 360 6.0 8.0 0.00 0.00 0.00 32 1014.9
20260502212334 50 360 5.0 8.0 0.00 0.00 0.00 33 1014.9
20260502211833 50 360 1.0 8.0 0.00 0.00 0.00 33 1014.9
20260502211334 50 5 1.0 8.0 0.00 0.00 0.00 35 1014.9
20260502210834 50 360 0.0 8.0 0.00 0.00 0.00 33 1015.0
20260502205834 50 360 3.0 8.0 0.00 0.00 0.00 33 1015.1
20260502205334 50 360 4.0 8.0 0.00 0.00 0.00 35 1015.1
20260502204834 50 360 10.0 8.0 0.00 0.00 0.00 34 1015.2
20260502203834 49 360 5.0 8.0 0.00 0.00 0.00 36 1015.2
20260502203334 49 360 0.0 8.0 0.00 0.00 0.00 35 1015.2
20260502202834 49 360 0.0 8.0 0.00 0.00 0.00 34 1015.4
20260502202334 49 360 1.0 8.0 0.00 0.00 0.00 35 1015.4
20260502201834 49 360 1.0 8.0 0.00 0.00 0.00 36 1015.5
20260502200834 49 360 0.0 8.0 0.00 0.00 0.00 38 1015.5
20260502200334 49 360 0.0 8.0 0.00 0.00 0.00 36 1015.6
20260502195834 49 360 0.0 8.0 0.00 0.00 0.00 35 1015.7
20260502194334 49 360 6.0 8.0 0.00 0.00 0.00 37 1015.9
20260502193334 48 360 5.0 8.0 0.00 0.00 0.00 38 1015.9
20260502192834 48 360 1.0 8.0 0.00 0.00 0.00 40 1016.0
20260502192334 48 360 4.0 8.0 0.00 0.00 0.00 40 1016.1
20260502191334 48 360 3.0 8.0 0.00 0.00 0.00 39 1016.2
20260502190834 48 360 3.0 8.0 0.00 0.00 0.00 40 1016.2
20260502190334 47 360 4.0 8.0 0.00 0.00 0.00 40 1016.4
20260502185834 47 360 4.0 8.0 0.00 0.00 0.00 40 1016.4
20260502185334 47 360 2.0 8.0 0.00 0.00 0.00 40 1016.5
20260502184834 47 360 2.0 8.0 0.00 0.00 0.00 40 1016.5
20260502184334 47 360 0.0 8.0 0.00 0.00 0.00 40 1016.5
20260502183834 47 360 5.0 8.0 0.00 0.00 0.00 38 1016.6
20260502183334 47 360 3.0 8.0 0.00 0.00 0.00 41 1016.7
20260502182334 47 360 3.0 8.0 0.00 0.00 0.00 42 1016.7
20260502180834 46 360 2.0 8.0 0.00 0.00 0.00 42 1016.8
20260502170349 46 360 2.0 4.0 0.00 0.00 0.00 45 1017.0
20260502163849 46 360 2.0 4.0 0.00 0.00 0.00 49 1017.2
20260502163349 46 360 3.0 4.0 0.00 0.00 0.00 49 1017.3
20260502162819 46 360 0.0 4.0 0.00 0.00 0.00 48 1017.3
20260502162349 46 360 0.0 4.0 0.00 0.00 0.00 50 1017.3
20260502161319 46 360 1.0 4.0 0.00 0.00 0.00 55 1017.3
20260502160349 45 360 3.0 4.0 0.00 0.00 0.00 53 1017.4
20260502151349 44 360 2.0 4.0 0.00 0.00 0.00 57 1017.5
20260502130328 38 360 0.0 0.0 0.00 0.00 0.00 77 1017.7
20260502123328 35 360 0.0 0.0 0.00 0.00 0.00 90 1017.7
20260502122828 35 360 0.0 0.0 0.00 0.00 0.00 93 1017.7
20260502121828 34 360 0.0 0.0 0.00 0.00 0.00 94 1017.8
20260502121328 33 360 0.0 0.0 0.00 0.00 0.00 94 1017.7
20260502120828 32 360 0.0 0.0 0.00 0.00 0.00 94 1017.7
20260502115828 31 360 0.0 0.0 0.00 0.00 0.00 93 1017.6
20260502115328 30 360 0.0 0.0 0.00 0.00 0.00 93 1017.6
20260502114328 28 360 0.0 0.0 0.00 0.00 0.00 94 1017.6
20260502113828 26 360 0.0 0.0 0.00 0.00 0.00 94 1017.5
20260502113328 25 360 0.0 0.0 0.00 0.00 0.00 94 1017.4
20260502112828 25 360 0.0 0.0 0.00 0.00 0.00 94 1017.4
20260502112328 24 360 0.0 0.0 0.00 0.00 0.00 94 1017.2
20260502111828 24 360 0.0 0.0 0.00 0.00 0.00 94 1017.2
20260502111328 24 360 0.0 0.0 0.00 0.00 0.00 94 1017.2
20260502110828 24 360 0.0 0.0 0.00 0.00 0.00 94 1017.2
20260502110328 24 360 0.0 0.0 0.00 0.00 0.00 94 1017.2
20260502105828 24 360 0.0 0.0 0.00 0.00 0.00 94 1017.2
20260502105328 24 360 0.0 0.0 0.00 0.00 0.00 94 1017.4
20260502104828 24 360 0.0 0.0 0.00 0.00 0.00 94 1017.3
20260502104328 24 360 0.0 0.0 0.00 0.00 0.00 94 1017.3
20260502103828 24 360 0.0 0.0 0.00 0.00 0.00 94 1017.4
20260502102828 24 360 0.0 0.0 0.00 0.00 0.00 94 1017.3
20260502102328 24 360 0.0 0.0 0.00 0.00 0.00 94 1017.4
20260502101328 24 360 0.0 0.0 0.00 0.00 0.00 94 1017.2
20260502100828 24 360 0.0 0.0 0.00 0.00 0.00 94 1017.2
20260502091344 25 360 0.0 0.0 0.00 0.00 0.00 94 1017.2
20260502090844 25 360 0.0 0.0 0.00 0.00 0.00 94 1017.1
20260502090344 25 360 0.0 0.0 0.00 0.00 0.00 94 1017.1
20260502071344 26 360 0.0 0.0 0.00 0.00 0.00 94 1016.9
20260502070844 26 360 0.0 0.0 0.00 0.00 0.00 94 1016.9
20260502065844 27 360 0.0 0.0 0.00 0.00 0.00 94 1016.9
20260502065344 27 360 0.0 0.0 0.00 0.00 0.00 94 1017.1
20260502064844 27 360 0.0 0.0 0.00 0.00 0.00 93 1017.1
20260502064344 27 360 0.0 0.0 0.00 0.00 0.00 93 1017.0
20260502063844 27 360 0.0 0.0 0.00 0.00 0.00 94 1017.1
20260502063344 27 360 0.0 0.0 0.00 0.00 0.00 94 1017.1
20260502062844 27 360 0.0 0.0 0.00 0.00 0.00 93 1017.1
20260502062344 27 360 0.0 0.0 0.00 0.00 0.00 93 1017.1
20260502061844 27 360 0.0 0.0 0.00 0.00 0.00 93 1017.1
20260502060844 27 360 0.0 0.0 0.00 0.00 0.00 93 1017.1
20260502055846 27 360 0.0 0.0 0.00 0.00 0.00 93 1017.0
20260502055346 27 360 0.0 0.0 0.00 0.00 0.00 93 1017.0
20260502054846 27 360 0.0 0.0 0.00 0.00 0.00 93 1017.0
20260502053846 28 360 0.0 0.0 0.00 0.00 0.00 93 1017.0
20260502053346 28 360 0.0 0.0 0.00 0.00 0.00 93 1017.1
20260502052846 28 360 0.0 0.0 0.00 0.00 0.00 93 1017.1
20260502052346 28 360 0.0 0.0 0.00 0.00 0.00 93 1017.0
20260502051846 28 360 0.0 0.0 0.00 0.00 0.00 93 1017.0
20260502051346 28 360 0.0 0.0 0.00 0.00 0.00 93 1017.0
20260502050346 29 360 0.0 0.0 0.00 0.00 0.00 93 1017.0
20260502045846 29 360 0.0 0.0 0.00 0.00 0.00 93 1017.0
20260502045346 29 360 0.0 0.0 0.00 0.00 0.00 93 1017.0
20260502044846 29 360 0.0 0.0 0.00 0.00 0.00 92 1017.0
20260502044346 30 360 0.0 0.0 0.00 0.00 0.00 93 1017.2
20260502043346 30 360 0.0 0.0 0.00 0.00 0.00 92 1017.1
20260502042846 30 360 0.0 0.0 0.00 0.00 0.00 92 1017.2
20260502041846 30 360 0.0 0.0 0.00 0.00 0.00 92 1017.2
20260502041346 30 360 0.0 0.0 0.00 0.00 0.00 92 1017.2
20260502040846 30 360 0.0 0.0 0.00 0.00 0.00 92 1017.2
20260502035846 30 360 0.0 0.0 0.00 0.00 0.00 91 1017.2
20260502035346 31 360 0.0 0.0 0.00 0.00 0.00 91 1017.0
20260502034846 31 360 0.0 0.0 0.00 0.00 0.00 91 1017.1
20260502034346 31 360 0.0 0.0 0.00 0.00 0.00 91 1017.0
20260502033346 31 360 0.0 0.0 0.00 0.00 0.00 90 1017.0
20260502032846 31 360 0.0 0.0 0.00 0.00 0.00 90 1017.0
20260502032346 32 360 0.0 0.0 0.00 0.00 0.00 90 1017.1
20260502031846 32 360 0.0 0.0 0.00 0.00 0.00 90 1017.1
20260502031346 32 360 0.0 0.0 0.00 0.00 0.00 89 1017.1
20260502030846 32 360 0.0 0.0 0.00 0.00 0.00 89 1017.1
20260502030346 33 360 0.0 0.0 0.00 0.00 0.00 89 1017.1
20260502025846 33 360 0.0 0.0 0.00 0.00 0.00 88 1017.1
20260502025346 33 360 0.0 0.0 0.00 0.00 0.00 88 1017.2
20260502024346 33 360 0.0 0.0 0.00 0.00 0.00 88 1017.1
20260502023846 34 360 0.0 0.0 0.00 0.00 0.00 88 1017.3
20260502023346 34 360 0.0 0.0 0.00 0.00 0.00 87 1017.3
20260502022846 34 360 0.0 0.0 0.00 0.00 0.00 86 1017.3
20260502022346 34 360 0.0 0.0 0.00 0.00 0.00 86 1017.3
20260502021846 34 360 0.0 0.0 0.00 0.00 0.00 86 1017.3
20260502021346 35 360 0.0 0.0 0.00 0.00 0.00 85 1017.3
20260502020846 35 360 0.0 8.0 0.00 0.00 0.00 85 1017.3
20260502015324 35 360 0.0 8.0 0.00 0.00 0.00 85 1017.2
20260502014824 36 360 0.0 8.0 0.00 0.00 0.00 85 1017.1
20260502014324 36 360 0.0 8.0 0.00 0.00 0.00 85 1017.1
20260502013824 36 360 0.0 8.0 0.00 0.00 0.00 85 1017.1
20260502013324 36 360 0.0 8.0 0.00 0.00 0.00 85 1017.0
20260502012824 36 360 0.0 8.0 0.00 0.00 0.00 84 1017.0
20260502012324 36 360 0.0 8.0 0.00 0.00 0.00 85 1017.0
20260502011824 36 360 0.0 8.0 0.00 0.00 0.00 85 1017.0
20260502011324 36 360 0.0 8.0 0.00 0.00 0.00 85 1017.0
20260502010324 36 360 0.0 8.0 0.00 0.00 0.00 85 1016.9
20260502005824 36 360 0.0 8.0 0.00 0.00 0.00 84 1016.9
20260502005324 36 360 0.0 8.0 0.00 0.00 0.00 84 1016.9
20260502004824 36 360 1.0 8.0 0.00 0.00 0.00 84 1016.8
20260502003824 36 360 0.0 8.0 0.00 0.00 0.00 84 1016.9
20260502003324 36 360 0.0 8.0 0.00 0.00 0.00 84 1016.8
20260502002824 36 360 0.0 8.0 0.00 0.00 0.00 84 1016.8
20260502002324 36 360 0.0 8.0 0.00 0.00 0.00 84 1016.8
20260502001824 37 360 2.0 8.0 0.00 0.00 0.00 83 1016.9
20260502001324 37 360 0.0 8.0 0.00 0.00 0.00 83 1016.8
20260502000824 37 360 0.0 8.0 0.00 0.00 0.00 82 1016.8
20260501235824 37 360 0.0 8.0 0.00 0.00 0.00 81 1016.5
20260501235324 37 360 1.0 8.0 0.00 0.00 0.00 81 1016.4
20260501234824 37 360 1.0 8.0 0.00 0.00 0.00 80 1016.4
20260501234324 37 360 3.0 8.0 0.00 0.00 0.00 80 1016.5
20260501233824 37 360 3.0 8.0 0.00 0.00 0.00 80 1016.4